Time,TemperatureF,DewpointF,PressureIn,WindDirection,WindDirectionDegrees,WindSpeedMPH,WindSpeedGustMPH,Humidity,HourlyPrecipIn,Conditions,Clouds,dailyrainin,SolarRadiationWatts/m^2,SoftwareType,DateUTC
2013-02-07 00:29:00,22.0,9.4,30.29,WNW,288,0.0,6.0,58,0.00,CLR,,0.02,0.0,WeatherDisplay:10.37,2013-02-07 05:29:00,
2013-02-07 00:59:00,23.0,8.0,30.30,WNW,294,1.0,12.0,52,0.00,CLR,,0.02,0.0,WeatherDisplay:10.37,2013-02-07 05:59:00,
2013-02-07 01:29:00,21.8,7.3,30.32,NW,321,1.0,8.0,53,0.00,CLR,,0.02,0.0,WeatherDisplay:10.37,2013-02-07 06:29:00,
2013-02-07 01:59:00,21.0,6.1,30.32,NW,321,2.0,7.0,52,0.00,RA,,0.00,0.0,WeatherDisplay:10.37,2013-02-07 06:59:00,
2013-02-07 02:29:00,19.7,4.9,30.34,NNW,341,0.0,6.0,52,0.00,CLR,,0.00,0.0,WeatherDisplay:10.37,2013-02-07 07:29:00,
2013-02-07 02:59:00,18.6,4.3,30.34,WNW,293,0.0,6.0,53,0.00,CLR,,0.00,0.0,WeatherDisplay:10.37,2013-02-07 07:59:00,
2013-02-07 03:29:00,17.7,6.2,30.35,WNW,292,0.0,2.0,60,0.00,CLR,,0.00,0.0,WeatherDisplay:10.37,2013-02-07 08:29:00,
2013-02-07 03:59:00,16.1,3.1,30.37,WNW,292,0.0,1.0,56,0.00,CLR,,0.00,0.0,WeatherDisplay:10.37,2013-02-07 08:59:00,
2013-02-07 04:29:00,15.0,4.0,30.40,WNW,291,0.0,1.0,61,0.00,CLR,,0.00,0.0,WeatherDisplay:10.37,2013-02-07 09:29:00,
2013-02-07 04:59:00,13.9,4.7,30.40,WNW,292,0.0,0.0,66,0.00,CLR,,0.00,0.0,WeatherDisplay:10.37,2013-02-07 09:59:00,
2013-02-07 05:29:00,13.4,4.4,30.40,WNW,291,0.0,1.0,67,0.00,CLR,,0.00,0.0,WeatherDisplay:10.37,2013-02-07 10:29:00,
2013-02-07 05:59:00,13.7,7.5,30.41,WNW,292,0.0,1.0,76,0.00,CLR,,0.00,0.0,WeatherDisplay:10.37,2013-02-07 10:59:00,
2013-02-07 06:29:00,12.9,5.0,30.42,WNW,292,0.0,0.0,70,0.00,OVC,,0.00,0.0,WeatherDisplay:10.37,2013-02-07 11:29:00,
2013-02-07 06:59:00,12.7,5.4,30.44,WNW,292,0.0,0.0,72,0.00,SCT,,0.00,7.0,WeatherDisplay:10.37,2013-02-07 11:59:00,
2013-02-07 07:29:00,12.6,6.8,30.46,WNW,292,0.0,1.0,77,0.00,FEW,,0.00,53.0,WeatherDisplay:10.37,2013-02-07 12:29:00,
2013-02-07 07:59:00,14.8,5.8,30.48,WNW,292,0.0,2.0,67,0.00,SCT,,0.00,76.0,WeatherDisplay:10.37,2013-02-07 12:59:00,
2013-02-07 08:29:00,16.8,5.3,30.49,WNW,290,0.0,3.0,60,0.00,BKN,,0.00,125.0,WeatherDisplay:10.37,2013-02-07 13:29:00,
2013-02-07 08:59:00,19.0,5.1,30.50,West,280,0.0,6.0,54,0.00,CLR,,0.00,197.0,WeatherDisplay:10.37,2013-02-07 13:59:00,
2013-02-07 09:29:00,19.5,4.7,30.50,NW,306,1.0,9.0,52,0.00,FEW,,0.00,396.0,WeatherDisplay:10.37,2013-02-07 14:29:00,
2013-02-07 09:59:00,20.7,4.5,30.52,WNW,291,5.0,10.0,49,0.00,CLR,,0.00,439.0,WeatherDisplay:10.37,2013-02-07 14:59:00,
2013-02-07 10:29:00,21.3,5.1,30.52,West,274,5.0,14.0,49,0.00,FEW,,0.00,232.0,WeatherDisplay:10.37,2013-02-07 15:29:00,
2013-02-07 10:59:00,22.0,4.8,30.52,WNW,302,6.0,12.0,47,0.00,CLR,,0.00,519.0,WeatherDisplay:10.37,2013-02-07 15:59:00,
2013-02-07 11:29:00,22.6,4.4,30.52,NW,304,5.0,13.0,45,0.00,CLR,,0.00,536.0,WeatherDisplay:10.37,2013-02-07 16:29:00,
2013-02-07 11:59:00,23.8,6.0,30.51,NW,312,5.0,12.0,46,0.00,CLR,,0.00,554.0,WeatherDisplay:10.37,2013-02-07 16:59:00,
2013-02-07 12:29:00,24.3,5.4,30.50,NW,304,5.0,15.0,44,0.00,CLR,,0.00,552.0,WeatherDisplay:10.37,2013-02-07 17:29:00,
2013-02-07 12:59:00,24.9,5.0,30.49,NW,318,3.0,12.0,42,0.00,CLR,,0.00,541.0,WeatherDisplay:10.37,2013-02-07 17:59:00,
2013-02-07 13:29:00,25.9,6.4,30.48,NW,308,0.0,9.0,43,0.00,CLR,,0.00,506.0,WeatherDisplay:10.37,2013-02-07 18:29:00,
2013-02-07 13:59:00,26.2,4.6,30.48,NW,313,3.0,10.0,39,0.00,CLR,,0.00,439.0,WeatherDisplay:10.37,2013-02-07 18:59:00,
2013-02-07 14:29:00,26.2,4.0,30.47,NW,322,3.0,8.0,38,0.00,BKN,,0.00,127.0,WeatherDisplay:10.37,2013-02-07 19:29:00,
2013-02-07 14:59:00,25.7,4.1,30.46,NW,317,3.0,12.0,39,0.00,BKN,,0.00,109.0,WeatherDisplay:10.37,2013-02-07 19:59:00,
2013-02-07 15:29:00,26.2,5.1,30.48,West,268,1.0,8.0,40,0.00,SCT,,0.00,107.0,WeatherDisplay:10.37,2013-02-07 20:29:00,
2013-02-07 15:59:00,26.4,4.7,30.48,North,352,1.0,6.0,39,0.00,SCT,,0.00,83.0,WeatherDisplay:10.37,2013-02-07 20:59:00,
2013-02-07 16:29:00,25.9,4.3,30.47,NNE,26,1.0,6.0,39,0.00,SCT,,0.00,35.0,WeatherDisplay:10.37,2013-02-07 21:29:00,
2013-02-07 16:59:00,25.1,4.1,30.48,East,90,0.0,5.0,40,0.00,CLR,,0.00,5.0,WeatherDisplay:10.37,2013-02-07 21:59:00,
2013-02-07 17:29:00,24.1,3.8,30.48,East,88,0.0,3.0,41,0.00,OVC,,0.00,0.0,WeatherDisplay:10.37,2013-02-07 22:29:00,
2013-02-07 17:59:00,23.1,3.9,30.48,East,88,0.0,1.0,43,0.00,CLR,,0.00,0.0,WeatherDisplay:10.37,2013-02-07 22:59:00,
2013-02-07 18:29:00,22.1,4.4,30.50,East,88,0.0,1.0,46,0.00,CLR,,0.00,0.0,WeatherDisplay:10.37,2013-02-07 23:29:00,
2013-02-07 18:59:00,21.9,4.7,30.51,East,88,0.0,1.0,47,0.00,CLR,,0.00,0.0,WeatherDisplay:10.37,2013-02-07 23:59:00,
2013-02-07 19:29:00,22.6,4.9,30.51,East,88,0.0,2.0,46,0.00,CLR,,0.00,0.0,WeatherDisplay:10.37,2013-02-08 00:29:00,
2013-02-07 19:59:00,22.4,4.7,30.51,East,88,0.0,1.0,46,0.00,CLR,,0.00,0.0,WeatherDisplay:10.37,2013-02-08 00:59:00,
2013-02-07 20:29:00,21.8,4.2,30.50,East,88,0.0,1.0,46,0.00,CLR,,0.00,0.0,WeatherDisplay:10.37,2013-02-08 01:29:00,
2013-02-07 21:00:00,21.4,6.5,30.50,East,88,0.0,1.0,52,0.00,CLR,,0.00,0.0,WeatherDisplay:10.37,2013-02-08 02:00:00,
2013-02-07 21:30:00,22.4,7.4,30.50,East,88,0.0,3.0,52,0.00,CLR,,0.00,0.0,WeatherDisplay:10.37,2013-02-08 02:30:00,
2013-02-07 22:00:00,22.8,7.8,30.50,East,88,0.0,1.0,52,0.00,CLR,,0.00,0.0,WeatherDisplay:10.37,2013-02-08 03:00:00,
2013-02-07 22:30:00,23.1,9.3,30.49,East,88,0.0,1.0,55,0.00,CLR,,0.00,0.0,WeatherDisplay:10.37,2013-02-08 03:30:00,
2013-02-07 23:00:00,23.4,10.8,30.49,East,88,0.0,1.0,58,0.00,CLR,,0.00,0.0,WeatherDisplay:10.37,2013-02-08 04:00:00,
2013-02-07 23:30:00,23.6,12.5,30.48,East,88,0.0,1.0,62,0.00,CLR,,0.00,0.0,WeatherDisplay:10.37,2013-02-08 04:30:00,